Time,TemperatureF,DewpointF,PressureIn,WindDirection,WindDirectionDegrees,WindSpeedMPH,WindSpeedGustMPH,Humidity,HourlyPrecipIn,Conditions,Clouds,dailyrainin,SolarRadiationWatts/m^2,SoftwareType,DateUTC
2013-03-05 00:04:00,70.2,63.0,30.07,NE,45,0.0,-999.0,78,0.00,,,0.00,0,Wunderground v.1.15,2013-03-04 13:04:00,
2013-03-05 00:09:00,70.3,62.4,30.07,East,80,0.0,1.0,76,0.00,,,0.00,0,Wunderground v.1.15,2013-03-04 13:09:00,
2013-03-05 00:14:00,70.2,62.6,30.07,East,80,0.0,0.0,77,0.00,,,0.00,0,Wunderground v.1.15,2013-03-04 13:14:00,
2013-03-05 00:19:00,70.1,62.9,30.07,NE,42,0.0,0.0,78,0.00,,,0.00,0,Wunderground v.1.15,2013-03-04 13:19:00,
2013-03-05 00:24:00,70.1,62.9,30.07,NNE,31,0.0,0.0,78,0.00,,,0.00,0,Wunderground v.1.15,2013-03-04 13:24:00,
2013-03-05 00:29:00,70.0,62.8,30.07,NNW,335,0.0,0.0,78,0.00,,,0.00,0,Wunderground v.1.15,2013-03-04 13:29:00,
2013-03-05 00:34:00,70.2,63.0,30.07,NE,45,0.0,-999.0,78,0.00,,,0.00,0,Wunderground v.1.15,2013-03-04 13:34:00,
2013-03-05 00:39:00,70.0,62.5,30.07,NNE,28,1.0,2.0,77,0.00,,,0.00,0,Wunderground v.1.15,2013-03-04 13:39:00,
2013-03-05 00:44:00,70.0,62.5,30.07,NNE,19,1.0,1.0,77,0.00,,,0.00,0,Wunderground v.1.15,2013-03-04 13:44:00,
2013-03-05 00:49:00,70.1,62.2,30.07,SE,126,0.0,1.0,76,0.00,,,0.00,0,Wunderground v.1.15,2013-03-04 13:49:00,
2013-03-05 00:54:00,70.1,62.2,30.06,SE,125,0.0,0.0,76,0.00,,,0.00,0,Wunderground v.1.15,2013-03-04 13:54:00,
2013-03-05 00:59:00,70.0,61.7,30.06,NNE,23,1.0,-999.0,75,0.00,,,0.00,0,Wunderground v.1.15,2013-03-04 13:59:00,
2013-03-05 01:04:00,70.1,61.8,30.06,NNE,28,0.0,0.0,75,0.00,,,0.00,0,Wunderground v.1.15,2013-03-04 14:04:00,
2013-03-05 01:09:00,70.2,62.3,30.06,NNE,28,0.0,0.0,76,0.00,,,0.00,0,Wunderground v.1.15,2013-03-04 14:09:00,
2013-03-05 01:14:00,70.2,62.3,30.06,NNE,28,0.0,0.0,76,0.00,,,0.00,0,Wunderground v.1.15,2013-03-04 14:14:00,
2013-03-05 01:19:00,70.1,62.2,30.06,NNE,28,0.0,0.0,76,0.00,,,0.00,0,Wunderground v.1.15,2013-03-04 14:19:00,
2013-03-05 01:24:00,70.1,62.2,30.06,NNE,23,0.0,-999.0,76,0.00,,,0.00,0,Wunderground v.1.15,2013-03-04 14:24:00,
2013-03-05 01:29:00,70.0,62.1,30.06,NNE,28,0.0,0.0,76,0.00,,,0.00,0,Wunderground v.1.15,2013-03-04 14:29:00,
2013-03-05 01:34:00,69.9,62.4,30.06,NNE,28,0.0,0.0,77,0.00,,,0.00,0,Wunderground v.1.15,2013-03-04 14:34:00,
2013-03-05 01:39:00,69.8,62.3,30.06,NNE,28,0.0,0.0,77,0.00,,,0.00,0,Wunderground v.1.15,2013-03-04 14:39:00,
2013-03-05 01:44:00,70.1,62.2,30.06,NNE,23,0.0,-999.0,76,0.00,,,0.00,0,Wunderground v.1.15,2013-03-04 14:44:00,
2013-03-05 01:49:00,69.7,62.5,30.05,NNE,28,0.0,0.0,78,0.00,,,0.00,0,Wunderground v.1.15,2013-03-04 14:49:00,
2013-03-05 01:54:00,69.7,62.5,30.05,NNE,28,0.0,0.0,78,0.00,,,0.00,0,Wunderground v.1.15,2013-03-04 14:54:00,
2013-03-05 01:59:00,69.6,62.8,30.05,NNE,28,0.0,0.0,79,0.00,,,0.00,0,Wunderground v.1.15,2013-03-04 14:59:00,
2013-03-05 02:04:00,69.8,63.0,30.05,NNE,23,0.0,-999.0,79,0.00,,,0.00,0,Wunderground v.1.15,2013-03-04 15:04:00,
2013-03-05 02:09:00,69.3,62.9,30.05,NNE,28,0.0,0.0,80,0.00,,,0.00,0,Wunderground v.1.15,2013-03-04 15:09:00,
2013-03-05 02:14:00,69.8,63.0,30.05,NNE,23,0.0,-999.0,79,0.00,,,0.00,0,Wunderground v.1.15,2013-03-04 15:14:00,
2013-03-05 02:19:00,69.2,63.5,30.04,NNE,23,0.0,-999.0,82,0.00,,,0.00,0,Wunderground v.1.15,2013-03-04 15:19:00,
2013-03-05 02:24:00,69.2,63.5,30.04,NNE,23,0.0,-999.0,82,0.00,,,0.00,0,Wunderground v.1.15,2013-03-04 15:24:00,
2013-03-05 02:29:00,69.2,63.5,30.04,NNE,23,0.0,-999.0,82,0.00,,,0.00,0,Wunderground v.1.15,2013-03-04 15:29:00,
2013-03-05 02:34:00,69.2,63.5,30.04,NNE,23,0.0,-999.0,82,0.00,,,0.00,0,Wunderground v.1.15,2013-03-04 15:34:00,
2013-03-05 02:39:00,69.2,63.5,30.04,NNE,23,0.0,-999.0,82,0.00,,,0.00,0,Wunderground v.1.15,2013-03-04 15:39:00,
2013-03-05 02:44:00,69.2,63.5,30.04,NNE,23,0.0,-999.0,82,0.00,,,0.00,0,Wunderground v.1.15,2013-03-04 15:44:00,
2013-03-05 02:49:00,69.0,62.9,30.04,North,0,0.0,-999.0,81,0.00,,,0.00,0,Wunderground v.1.15,2013-03-04 15:49:00,
2013-03-05 02:54:00,69.0,62.9,30.04,North,0,0.0,-999.0,81,0.00,,,0.00,0,Wunderground v.1.15,2013-03-04 15:54:00,
2013-03-05 02:59:00,69.0,62.9,30.04,North,0,0.0,-999.0,81,0.00,,,0.00,0,Wunderground v.1.15,2013-03-04 15:59:00,
2013-03-05 03:04:00,69.0,62.9,30.04,North,0,0.0,-999.0,81,0.00,,,0.00,0,Wunderground v.1.15,2013-03-04 16:04:00,
2013-03-05 03:09:00,69.0,62.9,30.04,North,0,0.0,-999.0,81,0.00,,,0.00,0,Wunderground v.1.15,2013-03-04 16:09:00,
2013-03-05 03:14:00,69.0,62.9,30.04,North,0,0.0,-999.0,81,0.00,,,0.00,0,Wunderground v.1.15,2013-03-04 16:14:00,
2013-03-05 03:19:00,68.9,62.8,30.03,North,0,0.0,-999.0,81,0.00,,,0.00,0,Wunderground v.1.15,2013-03-04 16:19:00,
2013-03-05 03:24:00,68.9,62.8,30.03,North,0,0.0,-999.0,81,0.00,,,0.00,0,Wunderground v.1.15,2013-03-04 16:24:00,
2013-03-05 03:29:00,68.9,62.8,30.03,North,0,0.0,-999.0,81,0.00,,,0.00,0,Wunderground v.1.15,2013-03-04 16:29:00,
2013-03-05 03:34:00,68.9,62.8,30.03,North,0,0.0,-999.0,81,0.00,,,0.00,0,Wunderground v.1.15,2013-03-04 16:34:00,
2013-03-05 03:39:00,68.9,62.8,30.03,North,0,0.0,-999.0,81,0.00,,,0.00,0,Wunderground v.1.15,2013-03-04 16:39:00,
2013-03-05 03:44:00,68.9,62.8,30.03,North,0,0.0,-999.0,81,0.00,,,0.00,0,Wunderground v.1.15,2013-03-04 16:44:00,
2013-03-05 03:49:00,68.8,63.1,30.03,North,0,0.0,-999.0,82,0.00,,,0.00,0,Wunderground v.1.15,2013-03-04 16:49:00,
2013-03-05 03:54:00,68.8,63.1,30.03,North,0,0.0,-999.0,82,0.00,,,0.00,0,Wunderground v.1.15,2013-03-04 16:54:00,
2013-03-05 03:59:00,68.8,63.1,30.03,North,0,0.0,-999.0,82,0.00,,,0.00,0,Wunderground v.1.15,2013-03-04 16:59:00,
2013-03-05 04:04:00,68.8,63.1,30.03,North,0,0.0,-999.0,82,0.00,,,0.00,0,Wunderground v.1.15,2013-03-04 17:04:00,
2013-03-05 04:09:00,68.8,63.1,30.03,North,0,0.0,-999.0,82,0.00,,,0.00,0,Wunderground v.1.15,2013-03-04 17:09:00,
2013-03-05 04:14:00,68.8,63.1,30.03,North,0,0.0,-999.0,82,0.00,,,0.00,0,Wunderground v.1.15,2013-03-04 17:14:00,
2013-03-05 04:19:00,68.5,63.5,30.03,North,0,0.0,-999.0,84,0.00,,,0.00,0,Wunderground v.1.15,2013-03-04 17:19:00,
2013-03-05 04:24:00,68.5,63.5,30.03,North,0,0.0,-999.0,84,0.00,,,0.00,0,Wunderground v.1.15,2013-03-04 17:24:00,
2013-03-05 04:29:00,68.5,63.5,30.03,North,0,0.0,-999.0,84,0.00,,,0.00,0,Wunderground v.1.15,2013-03-04 17:29:00,
2013-03-05 04:34:00,68.5,63.5,30.03,North,0,0.0,-999.0,84,0.00,,,0.00,0,Wunderground v.1.15,2013-03-04 17:34:00,
2013-03-05 04:39:00,68.5,63.5,30.03,North,0,0.0,-999.0,84,0.00,,,0.00,0,Wunderground v.1.15,2013-03-04 17:39:00,
2013-03-05 04:44:00,68.5,63.5,30.03,North,0,0.0,-999.0,84,0.00,,,0.00,0,Wunderground v.1.15,2013-03-04 17:44:00,
2013-03-05 04:49:00,67.8,63.5,30.03,North,0,0.0,-999.0,86,0.00,,,0.00,0,Wunderground v.1.15,2013-03-04 17:49:00,
2013-03-05 04:54:00,67.8,63.5,30.03,North,0,0.0,-999.0,86,0.00,,,0.00,0,Wunderground v.1.15,2013-03-04 17:54:00,
2013-03-05 04:59:00,67.8,63.5,30.03,North,0,0.0,-999.0,86,0.00,,,0.00,0,Wunderground v.1.15,2013-03-04 17:59:00,
2013-03-05 05:04:00,67.8,63.5,30.03,North,0,0.0,-999.0,86,0.00,,,0.00,0,Wunderground v.1.15,2013-03-04 18:04:00,
2013-03-05 05:09:00,67.8,63.5,30.03,North,0,0.0,-999.0,86,0.00,,,0.00,0,Wunderground v.1.15,2013-03-04 18:09:00,
2013-03-05 05:14:00,67.8,63.5,30.03,North,0,0.0,-999.0,86,0.00,,,0.00,0,Wunderground v.1.15,2013-03-04 18:14:00,
2013-03-05 05:19:00,67.7,62.3,30.03,NE,45,1.0,-999.0,83,0.00,,,0.00,0,Wunderground v.1.15,2013-03-04 18:19:00,
2013-03-05 05:24:00,67.7,62.3,30.03,NE,45,1.0,-999.0,83,0.00,,,0.00,0,Wunderground v.1.15,2013-03-04 18:24:00,
2013-03-05 05:29:00,67.7,62.3,30.03,NE,45,1.0,-999.0,83,0.00,,,0.00,0,Wunderground v.1.15,2013-03-04 18:29:00,
2013-03-05 05:34:00,67.7,62.3,30.03,NE,45,1.0,-999.0,83,0.00,,,0.00,0,Wunderground v.1.15,2013-03-04 18:34:00,
2013-03-05 05:39:00,67.7,62.3,30.03,NE,45,1.0,-999.0,83,0.00,,,0.00,0,Wunderground v.1.15,2013-03-04 18:39:00,
2013-03-05 05:44:00,67.7,62.3,30.03,NE,45,1.0,-999.0,83,0.00,,,0.00,0,Wunderground v.1.15,2013-03-04 18:44:00,
2013-03-05 05:49:00,68.5,62.8,30.03,ENE,68,1.0,-999.0,82,0.00,,,0.00,0,Wunderground v.1.15,2013-03-04 18:49:00,
2013-03-05 05:54:00,68.5,62.8,30.03,ENE,68,1.0,-999.0,82,0.00,,,0.00,0,Wunderground v.1.15,2013-03-04 18:54:00,
2013-03-05 05:59:00,68.5,62.8,30.03,ENE,68,1.0,-999.0,82,0.00,,,0.00,0,Wunderground v.1.15,2013-03-04 18:59:00,
2013-03-05 06:04:00,68.5,62.8,30.03,ENE,68,1.0,-999.0,82,0.00,,,0.00,0,Wunderground v.1.15,2013-03-04 19:04:00,
2013-03-05 06:09:00,68.5,62.8,30.03,ENE,68,1.0,-999.0,82,0.00,,,0.00,0,Wunderground v.1.15,2013-03-04 19:09:00,
2013-03-05 06:14:00,68.5,62.8,30.03,ENE,68,1.0,-999.0,82,0.00,,,0.00,0,Wunderground v.1.15,2013-03-04 19:14:00,
2013-03-05 06:19:00,68.1,62.0,30.05,ENE,68,0.0,-999.0,81,0.00,,,0.00,0,Wunderground v.1.15,2013-03-04 19:19:00,
2013-03-05 06:24:00,68.1,62.0,30.05,ENE,68,0.0,-999.0,81,0.00,,,0.00,0,Wunderground v.1.15,2013-03-04 19:24:00,
2013-03-05 06:29:00,68.1,62.0,30.05,ENE,68,0.0,-999.0,81,0.00,,,0.00,0,Wunderground v.1.15,2013-03-04 19:29:00,
2013-03-05 06:34:00,68.1,62.0,30.05,ENE,68,0.0,-999.0,81,0.00,,,0.00,0,Wunderground v.1.15,2013-03-04 19:34:00,
2013-03-05 06:39:00,68.1,62.0,30.05,ENE,68,0.0,-999.0,81,0.00,,,0.00,0,Wunderground v.1.15,2013-03-04 19:39:00,
2013-03-05 06:44:00,68.1,62.0,30.05,ENE,68,0.0,-999.0,81,0.00,,,0.00,0,Wunderground v.1.15,2013-03-04 19:44:00,
2013-03-05 06:49:00,67.5,62.2,30.05,ENE,68,0.0,-999.0,83,0.00,,,0.00,4,Wunderground v.1.15,2013-03-04 19:49:00,
2013-03-05 06:54:00,67.5,62.2,30.05,ENE,68,0.0,-999.0,83,0.00,,,0.00,4,Wunderground v.1.15,2013-03-04 19:54:00,
2013-03-05 06:59:00,67.5,62.2,30.05,ENE,68,0.0,-999.0,83,0.00,,,0.00,4,Wunderground v.1.15,2013-03-04 19:59:00,
2013-03-05 07:04:00,67.5,62.2,30.05,ENE,68,0.0,-999.0,83,0.00,,,0.00,4,Wunderground v.1.15,2013-03-04 20:04:00,
2013-03-05 07:09:00,67.5,62.2,30.05,ENE,68,0.0,-999.0,83,0.00,,,0.00,4,Wunderground v.1.15,2013-03-04 20:09:00,
2013-03-05 07:14:00,67.5,62.2,30.05,ENE,68,0.0,-999.0,83,0.00,,,0.00,4,Wunderground v.1.15,2013-03-04 20:14:00,
2013-03-05 07:19:00,67.2,61.9,30.06,ENE,68,0.0,-999.0,83,0.00,,,0.00,31,Wunderground v.1.15,2013-03-04 20:19:00,
2013-03-05 07:24:00,67.2,61.9,30.06,ENE,68,0.0,-999.0,83,0.00,,,0.00,31,Wunderground v.1.15,2013-03-04 20:24:00,
2013-03-05 07:29:00,67.2,61.9,30.06,ENE,68,0.0,-999.0,83,0.00,,,0.00,31,Wunderground v.1.15,2013-03-04 20:29:00,
2013-03-05 07:34:00,67.2,61.9,30.06,ENE,68,0.0,-999.0,83,0.00,,,0.00,31,Wunderground v.1.15,2013-03-04 20:34:00,
2013-03-05 07:39:00,67.2,61.9,30.06,ENE,68,0.0,-999.0,83,0.00,,,0.00,31,Wunderground v.1.15,2013-03-04 20:39:00,
2013-03-05 07:44:00,67.2,61.9,30.06,ENE,68,0.0,-999.0,83,0.00,,,0.00,31,Wunderground v.1.15,2013-03-04 20:44:00,
2013-03-05 07:49:00,68.5,62.4,30.07,ENE,68,1.0,-999.0,81,0.00,,,0.00,40,Wunderground v.1.15,2013-03-04 20:49:00,
2013-03-05 07:54:00,68.5,62.4,30.07,ENE,68,1.0,-999.0,81,0.00,,,0.00,40,Wunderground v.1.15,2013-03-04 20:54:00,
2013-03-05 07:59:00,68.5,62.4,30.07,ENE,68,1.0,-999.0,81,0.00,,,0.00,40,Wunderground v.1.15,2013-03-04 20:59:00,
2013-03-05 08:04:00,68.5,62.4,30.07,ENE,68,1.0,-999.0,81,0.00,,,0.00,40,Wunderground v.1.15,2013-03-04 21:04:00,
2013-03-05 08:09:00,68.5,62.4,30.07,ENE,68,1.0,-999.0,81,0.00,,,0.00,40,Wunderground v.1.15,2013-03-04 21:09:00,
2013-03-05 08:14:00,68.5,62.4,30.07,ENE,68,1.0,-999.0,81,0.00,,,0.00,40,Wunderground v.1.15,2013-03-04 21:14:00,
2013-03-05 08:19:00,70.0,62.1,30.08,ENE,68,1.0,-999.0,76,0.00,,,0.00,107,Wunderground v.1.15,2013-03-04 21:19:00,
2013-03-05 08:24:00,70.0,62.1,30.08,ENE,68,1.0,-999.0,76,0.00,,,0.00,107,Wunderground v.1.15,2013-03-04 21:24:00,
2013-03-05 08:29:00,70.0,62.1,30.08,ENE,68,1.0,-999.0,76,0.00,,,0.00,107,Wunderground v.1.15,2013-03-04 21:29:00,
2013-03-05 08:34:00,70.0,62.1,30.08,ENE,68,1.0,-999.0,76,0.00,,,0.00,107,Wunderground v.1.15,2013-03-04 21:34:00,
2013-03-05 08:39:00,70.0,62.1,30.08,ENE,68,1.0,-999.0,76,0.00,,,0.00,107,Wunderground v.1.15,2013-03-04 21:39:00,
2013-03-05 08:44:00,70.0,62.1,30.08,ENE,68,1.0,-999.0,76,0.00,,,0.00,107,Wunderground v.1.15,2013-03-04 21:44:00,
2013-03-05 08:49:00,72.3,62.4,30.08,ENE,68,1.0,-999.0,71,0.00,,,0.00,229,Wunderground v.1.15,2013-03-04 21:49:00,
2013-03-05 08:54:00,72.3,62.4,30.08,ENE,68,1.0,-999.0,71,0.00,,,0.00,229,Wunderground v.1.15,2013-03-04 21:54:00,
2013-03-05 08:59:00,72.3,62.4,30.08,ENE,68,1.0,-999.0,71,0.00,,,0.00,229,Wunderground v.1.15,2013-03-04 21:59:00,
2013-03-05 09:04:00,72.3,62.4,30.08,ENE,68,1.0,-999.0,71,0.00,,,0.00,229,Wunderground v.1.15,2013-03-04 22:04:00,
2013-03-05 09:09:00,72.3,62.4,30.08,ENE,68,1.0,-999.0,71,0.00,,,0.00,229,Wunderground v.1.15,2013-03-04 22:09:00,
2013-03-05 09:14:00,72.3,62.4,30.08,ENE,68,1.0,-999.0,71,0.00,,,0.00,229,Wunderground v.1.15,2013-03-04 22:14:00,
2013-03-05 09:19:00,74.4,63.6,30.08,ENE,68,2.0,-999.0,69,0.00,,,0.00,465,Wunderground v.1.15,2013-03-04 22:19:00,
2013-03-05 09:24:00,74.4,63.6,30.08,ENE,68,2.0,-999.0,69,0.00,,,0.00,465,Wunderground v.1.15,2013-03-04 22:24:00,
2013-03-05 09:29:00,74.4,63.6,30.08,ENE,68,2.0,-999.0,69,0.00,,,0.00,465,Wunderground v.1.15,2013-03-04 22:29:00,
2013-03-05 09:34:00,74.4,63.6,30.08,ENE,68,2.0,-999.0,69,0.00,,,0.00,465,Wunderground v.1.15,2013-03-04 22:34:00,
2013-03-05 09:39:00,74.4,63.6,30.08,ENE,68,2.0,-999.0,69,0.00,,,0.00,465,Wunderground v.1.15,2013-03-04 22:39:00,
2013-03-05 09:44:00,74.4,63.6,30.08,ENE,68,2.0,-999.0,69,0.00,,,0.00,465,Wunderground v.1.15,2013-03-04 22:44:00,
2013-03-05 09:49:00,76.0,63.8,30.08,ENE,68,2.0,-999.0,66,0.00,,,0.00,589,Wunderground v.1.15,2013-03-04 22:49:00,
2013-03-05 09:54:00,76.0,63.8,30.08,ENE,68,2.0,-999.0,66,0.00,,,0.00,589,Wunderground v.1.15,2013-03-04 22:54:00,
2013-03-05 09:59:00,76.0,63.8,30.08,ENE,68,2.0,-999.0,66,0.00,,,0.00,589,Wunderground v.1.15,2013-03-04 22:59:00,
2013-03-05 10:04:00,76.0,63.8,30.08,ENE,68,2.0,-999.0,66,0.00,,,0.00,589,Wunderground v.1.15,2013-03-04 23:04:00,
2013-03-05 10:09:00,76.0,63.8,30.08,ENE,68,2.0,-999.0,66,0.00,,,0.00,589,Wunderground v.1.15,2013-03-04 23:09:00,
2013-03-05 10:14:00,76.0,63.8,30.08,ENE,68,2.0,-999.0,66,0.00,,,0.00,589,Wunderground v.1.15,2013-03-04 23:14:00,
2013-03-05 10:19:00,76.6,64.8,30.09,East,98,3.0,3.0,67,0.00,,,0.00,694,Wunderground v.1.15,2013-03-04 23:19:00,
2013-03-05 10:24:00,76.9,65.1,30.09,NE,42,3.0,3.0,67,0.00,,,0.00,708,Wunderground v.1.15,2013-03-04 23:24:00,
2013-03-05 10:29:00,77.1,64.9,30.09,ENE,61,2.0,5.0,66,0.00,,,0.00,724,Wunderground v.1.15,2013-03-04 23:29:00,
2013-03-05 10:34:00,76.8,64.6,30.09,ENE,68,3.0,-999.0,66,0.00,,,0.00,679,Wunderground v.1.15,2013-03-04 23:34:00,
2013-03-05 10:39:00,77.5,64.8,30.09,NNE,33,3.0,3.0,65,0.00,,,0.00,766,Wunderground v.1.15,2013-03-04 23:39:00,
2013-03-05 10:44:00,77.7,65.4,30.09,NW,304,3.0,3.0,66,0.00,,,0.00,274,Wunderground v.1.15,2013-03-04 23:44:00,
2013-03-05 10:49:00,77.8,64.6,30.08,NE,45,3.0,-999.0,64,0.00,,,0.00,760,Wunderground v.1.15,2013-03-04 23:49:00,
2013-03-05 10:54:00,78.6,66.7,30.09,ENE,71,3.0,4.0,67,0.00,,,0.00,865,Wunderground v.1.15,2013-03-04 23:54:00,
2013-03-05 10:59:00,78.5,65.3,30.08,ENE,65,4.0,4.0,64,0.00,,,0.00,824,Wunderground v.1.15,2013-03-04 23:59:00,
2013-03-05 11:04:00,78.7,65.0,30.08,East,89,3.0,3.0,63,0.00,,,0.00,819,Wunderground v.1.15,2013-03-05 00:04:00,
2013-03-05 11:09:00,78.8,63.7,30.08,ENE,73,3.0,7.0,60,0.00,,,0.00,823,Wunderground v.1.15,2013-03-05 00:09:00,
2013-03-05 11:14:00,78.8,63.7,30.08,ENE,65,4.0,4.0,60,0.00,,,0.00,830,Wunderground v.1.15,2013-03-05 00:14:00,
2013-03-05 11:19:00,78.5,63.5,30.08,ESE,103,4.0,4.0,60,0.00,,,0.00,838,Wunderground v.1.15,2013-03-05 00:19:00,
2013-03-05 11:24:00,78.8,64.7,30.08,East,93,3.0,3.0,62,0.00,,,0.00,847,Wunderground v.1.15,2013-03-05 00:24:00,
2013-03-05 11:29:00,78.7,63.6,30.08,East,90,3.0,-999.0,60,0.00,,,0.00,835,Wunderground v.1.15,2013-03-05 00:29:00,
2013-03-05 11:34:00,78.6,64.5,30.08,NE,53,3.0,3.0,62,0.00,,,0.00,807,Wunderground v.1.15,2013-03-05 00:34:00,
2013-03-05 11:39:00,78.7,64.6,30.08,ENE,75,3.0,3.0,62,0.00,,,0.00,884,Wunderground v.1.15,2013-03-05 00:39:00,
2013-03-05 11:44:00,78.8,64.7,30.07,East,80,4.0,6.0,62,0.00,,,0.00,889,Wunderground v.1.15,2013-03-05 00:44:00,
2013-03-05 11:49:00,78.7,65.0,30.07,East,91,4.0,6.0,63,0.00,,,0.00,888,Wunderground v.1.15,2013-03-05 00:49:00,
2013-03-05 11:54:00,78.6,64.9,30.07,ENE,68,4.0,-999.0,63,0.00,,,0.00,878,Wunderground v.1.15,2013-03-05 00:54:00,
2013-03-05 11:59:00,79.0,65.8,30.07,ENE,67,4.0,5.0,64,0.00,,,0.00,905,Wunderground v.1.15,2013-03-05 00:59:00,
2013-03-05 12:04:00,79.2,64.6,30.07,South,191,3.0,3.0,61,0.00,,,0.00,942,Wunderground v.1.15,2013-03-05 01:04:00,
2013-03-05 12:09:00,79.9,65.7,30.07,SW,224,3.0,3.0,62,0.00,,,0.00,919,Wunderground v.1.15,2013-03-05 01:09:00,
2013-03-05 12:14:00,78.6,64.9,30.07,ENE,68,4.0,-999.0,63,0.00,,,0.00,878,Wunderground v.1.15,2013-03-05 01:14:00,
2013-03-05 12:19:00,79.9,65.7,30.07,NNE,19,3.0,4.0,62,0.00,,,0.00,1011,Wunderground v.1.15,2013-03-05 01:19:00,
2013-03-05 12:24:00,79.2,65.1,30.07,SSE,168,3.0,3.0,62,0.00,,,0.00,919,Wunderground v.1.15,2013-03-05 01:24:00,
2013-03-05 12:29:00,79.2,66.4,30.07,SSE,167,3.0,5.0,65,0.00,,,0.00,947,Wunderground v.1.15,2013-03-05 01:29:00,
2013-03-05 12:34:00,79.6,66.3,30.07,ENE,68,3.0,-999.0,64,0.00,,,0.00,927,Wunderground v.1.15,2013-03-05 01:34:00,
2013-03-05 12:39:00,79.1,65.0,30.06,NE,52,4.0,4.0,62,0.00,,,0.00,740,Wunderground v.1.15,2013-03-05 01:39:00,
2013-03-05 12:44:00,78.7,64.6,30.06,ENE,63,5.0,5.0,62,0.00,,,0.00,1113,Wunderground v.1.15,2013-03-05 01:44:00,
2013-03-05 12:49:00,79.0,65.8,30.06,ENE,68,4.0,-999.0,64,0.00,,,0.00,912,Wunderground v.1.15,2013-03-05 01:49:00,
2013-03-05 12:54:00,78.7,65.5,30.06,ENE,63,4.0,4.0,64,0.00,,,0.00,547,Wunderground v.1.15,2013-03-05 01:54:00,
2013-03-05 12:59:00,79.1,65.0,30.06,NNW,343,4.0,4.0,62,0.00,,,0.00,847,Wunderground v.1.15,2013-03-05 01:59:00,
2013-03-05 13:04:00,79.4,64.3,30.06,SE,126,3.0,3.0,60,0.00,,,0.00,550,Wunderground v.1.15,2013-03-05 02:04:00,
2013-03-05 13:09:00,79.0,65.8,30.06,ENE,68,4.0,-999.0,64,0.00,,,0.00,912,Wunderground v.1.15,2013-03-05 02:09:00,
2013-03-05 13:14:00,80.0,64.4,30.06,ENE,66,3.0,3.0,59,0.00,,,0.00,1005,Wunderground v.1.15,2013-03-05 02:14:00,
2013-03-05 13:19:00,79.4,63.8,30.05,NNE,28,4.0,5.0,59,0.00,,,0.00,1005,Wunderground v.1.15,2013-03-05 02:19:00,
2013-03-05 13:24:00,79.5,65.3,30.05,ENE,68,4.0,-999.0,62,0.00,,,0.00,919,Wunderground v.1.15,2013-03-05 02:24:00,
2013-03-05 13:29:00,79.6,65.4,30.05,NNW,343,4.0,4.0,62,0.00,,,0.00,1209,Wunderground v.1.15,2013-03-05 02:29:00,
2013-03-05 13:34:00,79.5,65.3,30.05,ENE,68,4.0,-999.0,62,0.00,,,0.00,919,Wunderground v.1.15,2013-03-05 02:34:00,
2013-03-05 13:39:00,79.3,64.7,30.05,NE,39,4.0,4.0,61,0.00,,,0.00,970,Wunderground v.1.15,2013-03-05 02:39:00,
2013-03-05 13:44:00,79.5,65.3,30.05,NW,308,3.0,5.0,62,0.00,,,0.00,548,Wunderground v.1.15,2013-03-05 02:44:00,
2013-03-05 13:49:00,79.1,64.5,30.04,SW,215,4.0,5.0,61,0.00,,,0.00,548,Wunderground v.1.15,2013-03-05 02:49:00,
2013-03-05 13:54:00,80.3,64.7,30.04,North,355,3.0,5.0,59,0.00,,,0.00,1058,Wunderground v.1.15,2013-03-05 02:54:00,
2013-03-05 13:59:00,79.6,63.5,30.04,NE,45,3.0,-999.0,58,0.00,,,0.00,767,Wunderground v.1.15,2013-03-05 02:59:00,
2013-03-05 14:04:00,79.3,64.2,30.04,North,5,4.0,4.0,60,0.00,,,0.00,448,Wunderground v.1.15,2013-03-05 03:04:00,
2013-03-05 14:09:00,78.3,64.2,30.04,NNE,29,4.0,4.0,62,0.00,,,0.00,682,Wunderground v.1.15,2013-03-05 03:09:00,
2013-03-05 14:14:00,79.6,63.5,30.04,NE,45,3.0,-999.0,58,0.00,,,0.00,767,Wunderground v.1.15,2013-03-05 03:14:00,
2013-03-05 14:19:00,80.2,65.1,30.04,ENE,65,3.0,4.0,60,0.00,,,0.00,1011,Wunderground v.1.15,2013-03-05 03:19:00,
2013-03-05 14:24:00,80.6,64.5,30.03,North,5,4.0,4.0,58,0.00,,,0.00,983,Wunderground v.1.15,2013-03-05 03:24:00,
2013-03-05 14:29:00,81.2,64.0,30.03,NNE,20,4.0,4.0,56,0.00,,,0.00,464,Wunderground v.1.15,2013-03-05 03:29:00,
2013-03-05 14:34:00,79.7,62.6,30.03,ENE,68,3.0,-999.0,56,0.00,,,0.00,892,Wunderground v.1.15,2013-03-05 03:34:00,
2013-03-05 14:39:00,80.3,63.7,30.03,West,269,3.0,3.0,57,0.00,,,0.00,942,Wunderground v.1.15,2013-03-05 03:39:00,
2013-03-05 14:44:00,79.7,62.6,30.03,ENE,68,3.0,-999.0,56,0.00,,,0.00,892,Wunderground v.1.15,2013-03-05 03:44:00,
2013-03-05 14:49:00,79.8,62.2,30.03,ESE,103,4.0,8.0,55,0.00,,,0.00,932,Wunderground v.1.15,2013-03-05 03:49:00,
2013-03-05 14:54:00,80.0,62.9,30.02,NE,48,5.0,7.0,56,0.00,,,0.00,949,Wunderground v.1.15,2013-03-05 03:54:00,
2013-03-05 14:59:00,79.8,62.7,30.02,East,90,5.0,7.0,56,0.00,,,0.00,810,Wunderground v.1.15,2013-03-05 03:59:00,
2013-03-05 15:04:00,78.7,62.7,30.02,NE,39,5.0,7.0,58,0.00,,,0.00,860,Wunderground v.1.15,2013-03-05 04:04:00,
2013-03-05 15:09:00,80.4,63.3,30.02,ENE,68,4.0,-999.0,56,0.00,,,0.00,896,Wunderground v.1.15,2013-03-05 04:09:00,
2013-03-05 15:14:00,79.4,63.8,30.02,East,83,6.0,7.0,59,0.00,,,0.00,849,Wunderground v.1.15,2013-03-05 04:14:00,
2013-03-05 15:19:00,78.8,61.8,30.02,ESE,121,5.0,7.0,56,0.00,,,0.00,819,Wunderground v.1.15,2013-03-05 04:19:00,
2013-03-05 15:24:00,79.5,63.4,30.02,SE,142,4.0,4.0,58,0.00,,,0.00,791,Wunderground v.1.15,2013-03-05 04:24:00,
2013-03-05 15:29:00,79.1,63.5,30.02,ENE,68,5.0,-999.0,59,0.00,,,0.00,790,Wunderground v.1.15,2013-03-05 04:29:00,
2013-03-05 15:34:00,79.6,64.5,30.02,NE,54,5.0,5.0,60,0.00,,,0.00,745,Wunderground v.1.15,2013-03-05 04:34:00,
2013-03-05 15:39:00,79.8,65.2,30.02,SSE,154,4.0,6.0,61,0.00,,,0.00,728,Wunderground v.1.15,2013-03-05 04:39:00,
2013-03-05 15:44:00,80.1,64.5,30.02,ENE,74,4.0,4.0,59,0.00,,,0.00,714,Wunderground v.1.15,2013-03-05 04:44:00,
2013-03-05 15:49:00,79.6,64.0,30.02,ESE,121,4.0,9.0,59,0.00,,,0.00,689,Wunderground v.1.15,2013-03-05 04:49:00,
2013-03-05 15:54:00,79.3,63.2,30.02,ENE,71,5.0,15.0,58,0.00,,,0.00,682,Wunderground v.1.15,2013-03-05 04:54:00,
2013-03-05 15:59:00,79.6,63.5,30.02,ENE,68,4.0,-999.0,58,0.00,,,0.00,711,Wunderground v.1.15,2013-03-05 04:59:00,
2013-03-05 16:04:00,80.2,63.6,30.02,NE,44,4.0,4.0,57,0.00,,,0.00,645,Wunderground v.1.15,2013-03-05 05:04:00,
2013-03-05 16:09:00,79.9,62.8,30.02,SE,136,4.0,4.0,56,0.00,,,0.00,631,Wunderground v.1.15,2013-03-05 05:09:00,
2013-03-05 16:14:00,79.7,63.1,30.02,ENE,70,3.0,3.0,57,0.00,,,0.00,617,Wunderground v.1.15,2013-03-05 05:14:00,
2013-03-05 16:19:00,79.7,63.1,30.02,NNE,26,3.0,5.0,57,0.00,,,0.00,605,Wunderground v.1.15,2013-03-05 05:19:00,
2013-03-05 16:24:00,79.9,63.8,30.02,North,10,3.0,4.0,58,0.00,,,0.00,587,Wunderground v.1.15,2013-03-05 05:24:00,
2013-03-05 16:29:00,79.4,63.8,30.02,North,5,3.0,4.0,59,0.00,,,0.00,573,Wunderground v.1.15,2013-03-05 05:29:00,
2013-03-05 16:34:00,79.7,64.1,30.02,NE,45,3.0,-999.0,59,0.00,,,0.00,616,Wunderground v.1.15,2013-03-05 05:34:00,
2013-03-05 16:39:00,78.6,64.0,30.02,ENE,74,3.0,3.0,61,0.00,,,0.00,540,Wunderground v.1.15,2013-03-05 05:39:00,
2013-03-05 16:44:00,79.0,63.9,30.02,East,84,4.0,4.0,60,0.00,,,0.00,522,Wunderground v.1.15,2013-03-05 05:44:00,
2013-03-05 16:49:00,78.9,63.8,30.02,ENE,68,3.0,-999.0,60,0.00,,,0.00,522,Wunderground v.1.15,2013-03-05 05:49:00,
2013-03-05 16:54:00,78.3,64.2,30.02,NNE,32,3.0,3.0,62,0.00,,,0.00,483,Wunderground v.1.15,2013-03-05 05:54:00,
2013-03-05 16:59:00,78.7,64.6,30.02,ENE,59,3.0,3.0,62,0.00,,,0.00,471,Wunderground v.1.15,2013-03-05 05:59:00,
2013-03-05 17:04:00,78.4,63.4,30.02,ENE,58,3.0,7.0,60,0.00,,,0.00,457,Wunderground v.1.15,2013-03-05 06:04:00,
2013-03-05 17:09:00,78.9,63.8,30.02,ENE,68,3.0,-999.0,60,0.00,,,0.00,522,Wunderground v.1.15,2013-03-05 06:09:00,
2013-03-05 17:14:00,77.9,63.8,30.02,WSW,253,4.0,4.0,62,0.00,,,0.00,418,Wunderground v.1.15,2013-03-05 06:14:00,
2013-03-05 17:19:00,77.7,64.5,30.02,ENE,65,3.0,4.0,64,0.00,,,0.00,399,Wunderground v.1.15,2013-03-05 06:19:00,
2013-03-05 17:24:00,77.5,65.2,30.02,ENE,61,3.0,3.0,66,0.00,,,0.00,381,Wunderground v.1.15,2013-03-05 06:24:00,
2013-03-05 17:29:00,78.0,65.3,30.02,ENE,68,3.0,-999.0,65,0.00,,,0.00,418,Wunderground v.1.15,2013-03-05 06:29:00,
2013-03-05 17:34:00,77.5,65.2,30.02,East,85,3.0,3.0,66,0.00,,,0.00,345,Wunderground v.1.15,2013-03-05 06:34:00,
2013-03-05 17:39:00,78.0,65.3,30.02,ENE,68,3.0,-999.0,65,0.00,,,0.00,418,Wunderground v.1.15,2013-03-05 06:39:00,
2013-03-05 17:44:00,76.9,63.8,30.02,North,11,3.0,4.0,64,0.00,,,0.00,313,Wunderground v.1.15,2013-03-05 06:44:00,
2013-03-05 17:49:00,76.9,64.2,30.03,SE,136,3.0,5.0,65,0.00,,,0.00,288,Wunderground v.1.15,2013-03-05 06:49:00,
2013-03-05 17:54:00,76.9,64.2,30.03,NE,55,3.0,3.0,65,0.00,,,0.00,269,Wunderground v.1.15,2013-03-05 06:54:00,
2013-03-05 17:59:00,76.8,63.7,30.03,ENE,64,3.0,5.0,64,0.00,,,0.00,251,Wunderground v.1.15,2013-03-05 06:59:00,
2013-03-05 18:04:00,77.2,64.1,30.03,NE,45,3.0,-999.0,64,0.00,,,0.00,310,Wunderground v.1.15,2013-03-05 07:04:00,
2013-03-05 18:09:00,77.1,64.0,30.03,NE,56,2.0,2.0,64,0.00,,,0.00,220,Wunderground v.1.15,2013-03-05 07:09:00,
2013-03-05 18:14:00,76.6,63.1,30.03,NE,55,3.0,3.0,63,0.00,,,0.00,202,Wunderground v.1.15,2013-03-05 07:14:00,
2013-03-05 18:19:00,76.5,65.6,30.03,NE,45,3.0,-999.0,69,0.00,,,0.00,201,Wunderground v.1.15,2013-03-05 07:19:00,
2013-03-05 18:24:00,76.1,63.5,30.03,NE,36,3.0,9.0,65,0.00,,,0.00,165,Wunderground v.1.15,2013-03-05 07:24:00,
2013-03-05 18:29:00,75.3,64.4,30.03,ENE,59,4.0,9.0,69,0.00,,,0.00,146,Wunderground v.1.15,2013-03-05 07:29:00,
2013-03-05 18:34:00,76.5,65.6,30.03,NE,45,3.0,-999.0,69,0.00,,,0.00,201,Wunderground v.1.15,2013-03-05 07:34:00,
2013-03-05 18:39:00,74.8,64.4,30.03,NE,54,3.0,8.0,70,0.00,,,0.00,109,Wunderground v.1.15,2013-03-05 07:39:00,
2013-03-05 18:44:00,74.6,64.2,30.03,NE,44,3.0,3.0,70,0.00,,,0.00,90,Wunderground v.1.15,2013-03-05 07:44:00,
2013-03-05 18:49:00,74.5,64.1,30.03,NE,44,2.0,3.0,70,0.00,,,0.00,70,Wunderground v.1.15,2013-03-05 07:49:00,
2013-03-05 18:54:00,74.7,64.7,30.03,ENE,68,2.0,-999.0,71,0.00,,,0.00,91,Wunderground v.1.15,2013-03-05 07:54:00,
2013-03-05 18:59:00,74.2,64.2,30.03,ENE,59,2.0,2.0,71,0.00,,,0.00,39,Wunderground v.1.15,2013-03-05 07:59:00,
2013-03-05 19:04:00,73.7,63.7,30.03,ENE,61,2.0,2.0,71,0.00,,,0.00,26,Wunderground v.1.15,2013-03-05 08:04:00,
2013-03-05 19:09:00,73.5,63.9,30.03,NE,34,2.0,2.0,72,0.00,,,0.00,18,Wunderground v.1.15,2013-03-05 08:09:00,
2013-03-05 19:14:00,74.7,64.7,30.03,ENE,68,2.0,-999.0,71,0.00,,,0.00,91,Wunderground v.1.15,2013-03-05 08:14:00,
2013-03-05 19:19:00,73.1,64.3,30.03,ESE,108,1.0,4.0,74,0.00,,,0.00,9,Wunderground v.1.15,2013-03-05 08:19:00,
2013-03-05 19:24:00,72.7,63.9,30.03,SSW,193,1.0,1.0,74,0.00,,,0.00,5,Wunderground v.1.15,2013-03-05 08:24:00,
2013-03-05 19:29:00,72.5,64.1,30.03,East,93,1.0,1.0,75,0.00,,,0.00,0,Wunderground v.1.15,2013-03-05 08:29:00,
2013-03-05 19:34:00,73.3,64.5,30.03,ENE,68,1.0,-999.0,74,0.00,,,0.00,15,Wunderground v.1.15,2013-03-05 08:34:00,
2013-03-05 19:39:00,72.1,63.7,30.03,ENE,71,1.0,1.0,75,0.00,,,0.00,0,Wunderground v.1.15,2013-03-05 08:39:00,
2013-03-05 19:44:00,71.9,63.9,30.04,ENE,66,1.0,1.0,76,0.00,,,0.00,0,Wunderground v.1.15,2013-03-05 08:44:00,
2013-03-05 19:49:00,72.0,64.0,30.04,ENE,68,1.0,-999.0,76,0.00,,,0.00,0,Wunderground v.1.15,2013-03-05 08:49:00,
2013-03-05 19:54:00,71.7,64.1,30.04,NE,51,0.0,1.0,77,0.00,,,0.00,0,Wunderground v.1.15,2013-03-05 08:54:00,
2013-03-05 19:59:00,71.5,63.5,30.04,ENE,62,1.0,1.0,76,0.00,,,0.00,0,Wunderground v.1.15,2013-03-05 08:59:00,
2013-03-05 20:04:00,71.5,63.9,30.04,ENE,71,1.0,3.0,77,0.00,,,0.00,0,Wunderground v.1.15,2013-03-05 09:04:00,
2013-03-05 20:09:00,72.0,64.0,30.04,ENE,68,1.0,-999.0,76,0.00,,,0.00,0,Wunderground v.1.15,2013-03-05 09:09:00,
2013-03-05 20:14:00,71.5,64.3,30.05,SE,129,1.0,1.0,78,0.00,,,0.00,0,Wunderground v.1.15,2013-03-05 09:14:00,
2013-03-05 20:19:00,71.4,64.2,30.05,ESE,104,2.0,2.0,78,0.00,,,0.00,0,Wunderground v.1.15,2013-03-05 09:19:00,
2013-03-05 20:24:00,71.3,64.4,30.05,NE,53,1.0,1.0,79,0.00,,,0.00,0,Wunderground v.1.15,2013-03-05 09:24:00,
2013-03-05 20:29:00,71.4,64.5,30.05,ENE,68,1.0,-999.0,79,0.00,,,0.00,0,Wunderground v.1.15,2013-03-05 09:29:00,
2013-03-05 20:34:00,71.2,64.4,30.05,NE,53,2.0,2.0,79,0.00,,,0.00,0,Wunderground v.1.15,2013-03-05 09:34:00,
2013-03-05 20:39:00,71.4,64.5,30.05,ENE,68,1.0,-999.0,79,0.00,,,0.00,0,Wunderground v.1.15,2013-03-05 09:39:00,
2013-03-05 20:44:00,71.1,64.3,30.06,East,81,1.0,1.0,79,0.00,,,0.00,0,Wunderground v.1.15,2013-03-05 09:44:00,
2013-03-05 20:49:00,71.1,64.3,30.06,SE,126,1.0,1.0,79,0.00,,,0.00,0,Wunderground v.1.15,2013-03-05 09:49:00,
2013-03-05 20:54:00,71.0,63.8,30.06,SSE,150,1.0,1.0,78,0.00,,,0.00,0,Wunderground v.1.15,2013-03-05 09:54:00,
2013-03-05 20:59:00,71.0,63.8,30.06,SSE,165,1.0,1.0,78,0.00,,,0.00,0,Wunderground v.1.15,2013-03-05 09:59:00,
2013-03-05 21:04:00,71.1,63.9,30.06,NE,49,1.0,1.0,78,0.00,,,0.00,0,Wunderground v.1.15,2013-03-05 10:04:00,
2013-03-05 21:09:00,71.1,63.9,30.06,ENE,68,1.0,-999.0,78,0.00,,,0.00,0,Wunderground v.1.15,2013-03-05 10:09:00,
2013-03-05 21:14:00,71.3,63.7,30.07,NE,53,1.0,1.0,77,0.00,,,0.00,0,Wunderground v.1.15,2013-03-05 10:14:00,
2013-03-05 21:19:00,71.3,63.7,30.07,ENE,64,1.0,1.0,77,0.00,,,0.00,0,Wunderground v.1.15,2013-03-05 10:19:00,
2013-03-05 21:24:00,71.3,63.7,30.07,ENE,74,1.0,1.0,77,0.00,,,0.00,0,Wunderground v.1.15,2013-03-05 10:24:00,
2013-03-05 21:29:00,71.2,63.6,30.07,ENE,68,1.0,-999.0,77,0.00,,,0.00,0,Wunderground v.1.15,2013-03-05 10:29:00,
2013-03-05 21:34:00,71.2,64.0,30.07,ENE,71,1.0,2.0,78,0.00,,,0.00,0,Wunderground v.1.15,2013-03-05 10:34:00,
2013-03-05 21:39:00,71.2,64.0,30.07,East,81,1.0,5.0,78,0.00,,,0.00,0,Wunderground v.1.15,2013-03-05 10:39:00,
2013-03-05 21:44:00,71.1,63.9,30.07,NE,54,2.0,4.0,78,0.00,,,0.00,0,Wunderground v.1.15,2013-03-05 10:44:00,
2013-03-05 21:49:00,71.2,64.0,30.07,East,92,2.0,4.0,78,0.00,,,0.00,0,Wunderground v.1.15,2013-03-05 10:49:00,
2013-03-05 21:54:00,71.3,64.1,30.07,ESE,119,1.0,1.0,78,0.00,,,0.00,0,Wunderground v.1.15,2013-03-05 10:54:00,
2013-03-05 21:59:00,71.3,64.1,30.07,East,80,1.0,1.0,78,0.00,,,0.00,0,Wunderground v.1.15,2013-03-05 10:59:00,
2013-03-05 22:04:00,71.2,64.0,30.07,ENE,68,1.0,-999.0,78,0.00,,,0.00,0,Wunderground v.1.15,2013-03-05 11:04:00,
2013-03-05 22:09:00,71.4,63.8,30.06,East,82,1.0,3.0,77,0.00,,,0.00,0,Wunderground v.1.15,2013-03-05 11:09:00,
2013-03-05 22:14:00,71.5,63.9,30.07,North,5,1.0,1.0,77,0.00,,,0.00,0,Wunderground v.1.15,2013-03-05 11:14:00,
2013-03-05 22:19:00,71.6,64.4,30.07,ENE,61,1.0,1.0,78,0.00,,,0.00,0,Wunderground v.1.15,2013-03-05 11:19:00,
2013-03-05 22:24:00,71.6,64.4,30.07,ENE,66,1.0,2.0,78,0.00,,,0.00,0,Wunderground v.1.15,2013-03-05 11:24:00,
2013-03-05 22:29:00,71.5,64.3,30.07,ENE,68,1.0,-999.0,78,0.00,,,0.00,0,Wunderground v.1.15,2013-03-05 11:29:00,
2013-03-05 22:34:00,71.7,64.5,30.06,NNE,13,1.0,1.0,78,0.00,,,0.00,0,Wunderground v.1.15,2013-03-05 11:34:00,
2013-03-05 22:39:00,71.5,64.3,30.07,ENE,68,1.0,-999.0,78,0.00,,,0.00,0,Wunderground v.1.15,2013-03-05 11:39:00,
2013-03-05 22:44:00,71.7,64.8,30.06,ENE,78,1.0,1.0,79,0.00,,,0.00,0,Wunderground v.1.15,2013-03-05 11:44:00,
2013-03-05 22:49:00,71.6,64.7,30.06,East,79,1.0,8.0,79,0.00,,,0.00,0,Wunderground v.1.15,2013-03-05 11:49:00,
2013-03-05 22:54:00,71.7,64.5,30.06,NNE,21,2.0,4.0,78,0.00,,,0.00,0,Wunderground v.1.15,2013-03-05 11:54:00,
2013-03-05 22:59:00,71.6,64.4,30.06,NE,40,2.0,4.0,78,0.00,,,0.00,0,Wunderground v.1.15,2013-03-05 11:59:00,
2013-03-05 23:04:00,71.7,64.5,30.06,ENE,68,1.0,-999.0,78,0.00,,,0.00,0,Wunderground v.1.15,2013-03-05 12:04:00,
2013-03-05 23:09:00,71.7,64.5,30.06,ENE,68,1.0,-999.0,78,0.00,,,0.00,0,Wunderground v.1.15,2013-03-05 12:09:00,
2013-03-05 23:14:00,71.7,64.5,30.06,ENE,68,1.0,-999.0,78,0.00,,,0.00,0,Wunderground v.1.15,2013-03-05 12:14:00,
2013-03-05 23:19:00,71.7,64.5,30.05,ENE,68,1.0,-999.0,78,0.00,,,0.00,0,Wunderground v.1.15,2013-03-05 12:19:00,
2013-03-05 23:24:00,71.7,64.5,30.05,ENE,68,1.0,-999.0,78,0.00,,,0.00,0,Wunderground v.1.15,2013-03-05 12:24:00,
2013-03-05 23:29:00,71.7,64.5,30.05,ENE,68,1.0,-999.0,78,0.00,,,0.00,0,Wunderground v.1.15,2013-03-05 12:29:00,
2013-03-05 23:34:00,71.7,64.5,30.05,ENE,68,1.0,-999.0,78,0.00,,,0.00,0,Wunderground v.1.15,2013-03-05 12:34:00,
2013-03-05 23:39:00,71.7,64.5,30.05,ENE,68,1.0,-999.0,78,0.00,,,0.00,0,Wunderground v.1.15,2013-03-05 12:39:00,
2013-03-05 23:44:00,71.7,64.5,30.05,ENE,68,1.0,-999.0,78,0.00,,,0.00,0,Wunderground v.1.15,2013-03-05 12:44:00,
2013-03-05 23:49:00,71.1,63.9,30.05,ENE,68,2.0,-999.0,78,0.00,,,0.00,0,Wunderground v.1.15,2013-03-05 12:49:00,
2013-03-05 23:54:00,71.1,63.9,30.05,ENE,68,2.0,-999.0,78,0.00,,,0.00,0,Wunderground v.1.15,2013-03-05 12:54:00,
2013-03-05 23:59:00,71.1,63.9,30.05,ENE,68,2.0,-999.0,78,0.00,,,0.00,0,Wunderground v.1.15,2013-03-05 12:59:00,